This demonstration page uses our WeatherBlox Daily Observations layout. Learn more.

Left ArrowRight Arrow

44.89941, -97.11507

Hourly Observations for November 3, 2019

Temp ( °F °C ) Dew Point ( °F °C ) Humidity (%) Winds ( mph kmh ) Pressure ( in mb ) Visibility ( mi km ) Precip ( " mm )
12:53 am 00:53 Cloudy 35 1.7 27 -2.8 72 72 ESE 7 11 29.95 1014 10 16 0.00 0.00
1:53 am 01:53 Cloudy 34 1.1 27 -2.8 76 76 S 8 13 29.94 1014 10 16 0.00 0.00
1:53 am 01:53 Clear 30 -1.1 25 -3.9 82 82 SSW 10 17 29.93 1013 10 16 0.00 0.00
2:53 am 02:53 Clear 29 -1.7 24 -4.4 82 82 S 5 7 29.92 1013 10 16 0.00 0.00
3:53 am 03:53 Clear 29 -1.7 24 -4.4 82 82 Calm 29.91 1013 10 16 0.00 0.00
4:53 am 04:53 Clear 27 -2.8 24 -4.4 89 89 SW 3 6 29.91 1013 10 16 0.00 0.00
5:53 am 05:53 Clear 28 -2.2 25 -3.9 88 88 Calm 29.92 1013 10 16 0.00 0.00
6:53 am 06:53 Clear 24 -4.4 22 -5.6 91 91 SW 6 9 29.92 1013 10 16 0.00 0.00
7:53 am 07:53 Sunny 25 -3.9 23 -5 92 92 Calm 29.92 1013 10 16 0.00 0.00
8:53 am 08:53 Mostly Sunny 33 0.6 28 -2.2 82 82 WSW 5 7 29.91 1013 10 16 0.00 0.00
9:53 am 09:53 Sunny 36 2.2 29 -1.7 76 76 W 3 6 29.92 1013 10 16 0.00 0.00
10:53 am 10:53 Sunny 40 4.4 29 -1.7 65 65 WSW 7 11 29.90 1013 10 16 0.00 0.00
11:53 am 11:53 Sunny 45 7.2 29 -1.7 54 54 WSW 13 20 29.88 1012 10 16 0.00 0.00
12:53 pm 12:53 Sunny 44 6.7 29 -1.7 55 55 SW 13 20 29.85 1011 10 16 0.00 0.00
1:53 pm 13:53 Partly Cloudy 44 6.7 29 -1.7 55 55 W 12 19 29.84 1011 10 16 0.00 0.00
2:53 pm 14:53 Cloudy 44 6.7 30 -1.1 58 58 W 10 17 29.84 1010 10 16 0.00 0.00
3:53 pm 15:53 Cloudy with Light Rain 42 5.6 32 0 68 68 WNW 12 19 29.85 1011 10 16 0.00 0.00
4:53 pm 16:53 Cloudy with Light Rain 38 3.3 35 1.7 89 89 W 9 15 29.86 1011 10 16 0.00 0.00
5:53 pm 17:53 Cloudy 37 2.8 34 1.1 89 89 W 8 13 29.87 1012 10 16 0.00 0.00
6:53 pm 18:53 Mostly Cloudy 35 1.7 34 1.1 96 96 W 10 17 29.90 1013 10 16 0.00 0.00
7:53 pm 19:53 Cloudy 35 1.7 34 1.1 96 96 W 10 17 29.90 1013 10 16 0.00 0.00
8:02 pm 20:02 Cloudy 35 1.7 34 1.1 96 96 W 13 20 29.91 1013 10 16 0.00 0.00
8:10 pm 20:10 Cloudy 35 1.7 34 1.1 96 96 W 12 19 29.91 1013 10 16 0.00 0.00
8:53 pm 20:53 Cloudy with Light Rain 36 2.2 35 1.7 97 97 WSW 10 17 29.88 1012 8 13 0.01 0.25
9:16 pm 21:16 Cloudy 36 2.2 35 1.7 97 97 WSW 9 15 29.89 1012 10 16 0.00 0.00
9:31 pm 21:31 Cloudy 37 2.8 35 1.7 93 93 W 12 19 29.90 1012 10 16 0.00 0.00
9:41 pm 21:41 Cloudy 37 2.8 35 1.7 93 93 W 10 17 29.90 1012 10 16 0.00 0.00
9:53 pm 21:53 Cloudy 37 2.8 36 2.2 96 96 W 12 19 29.89 1012 10 16 0.00 0.00
10:12 pm 22:12 Cloudy 37 2.8 36 2.2 96 96 W 13 20 29.91 1013 10 16 0.00 0.00
10:22 pm 22:22 Cloudy 37 2.8 36 2.2 96 96 W 10 17 29.91 1013 10 16 0.00 0.00
10:39 pm 22:39 Cloudy 37 2.8 35 1.7 93 93 NW 12 19 29.91 1013 10 16 0.00 0.00
10:53 pm 22:53 Cloudy 37 2.8 35 1.7 93 93 NNW 15 24 29.90 1012 10 16 0.00 0.00
11:09 pm 23:09 Cloudy 36 2.2 34 1.1 93 93 NNW 13 20 29.93 1014 10 16 0.00 0.00
11:53 pm 23:53 Cloudy 35 1.7 33 0.6 93 93 NW 10 17 29.92 1013 10 16 0.00 0.00

Powered by AerisWeather